ワイズ-パンスターズ彗星

444P/WISE-PanSTARRS (2022)

English version
Home page
Updated on December 18, 2022

---------------------------------------------------------------------

・ プロフィール

符号 444P/2022 C4

・ 写真集

・ 軌道要素

Epoch 2022 Aug. 9.0 TT = JDT 2459800.5                                          
T 2022 July 10.38501 TT                                 Rudenko                 
q   1.4731523            (2000.0)            P               Q                  
n   0.15530970     Peri.  170.89709     -0.15680694     +0.91300436             
a   3.4277068      Node    89.40484     -0.92818340     -0.00593468             
e   0.5702222      Incl.   22.12507     -0.33747172     -0.40790663             
P   6.35                                                                        
From 259 observations 2003 Apr. 26-2022 June 20, mean residual 0".2.            

・ 星図

・ 光度変化

        m1 = 16.0 + 5 logΔ + 10.0 log r

---------------------------------------------------------------------

軌道要素はM.P.E.C. 2022-M81に掲載されたものです。
星図はステラナビゲータ Ver.10 (アストロアーツ) で作成したものです。
光度グラフはComet for Windowsで作成したものです。

---------------------------------------------------------------------

Copyright(C) Seiichi Yoshida (comet@aerith.net). All rights reserved.